• In Austria
  • List of Countries
  • For 7 days
  • Water Temperature
  • Satellite Maps
  • Weather Map
  • News
  • Weather Widgets
  • user-avatar
    Login

    Hourly Weather Kwiatkowek

    Today, 23 September, Sunday

    Time Temperature Precipitation Wind Pressure Humidity
    00:00 +11°C° 0 mm 3 mps 754 mmHg 66%
    01:00 +10°C° 0 mm 4 mps 754 mmHg 67%
    02:00 +10°C° 0 mm 3 mps 754 mmHg 68%
    03:00 +10°C° 0 mm 3 mps 754 mmHg 70%
    04:00 +9°C° 0 mm 3 mps 754 mmHg 71%
    05:00 +10°C° 0 mm 4 mps 753 mmHg 70%
    06:00 +11°C° 0 mm 4 mps 753 mmHg 68%
    07:00 +11°C° 0 mm 4 mps 753 mmHg 66%
    08:00 +12°C° 0.2 mm 5 mps 753 mmHg 68%
    09:00 +12°C° 0.2 mm 5 mps 753 mmHg 70%
    10:00 +13°C° 0.2 mm 5 mps 753 mmHg 71%
    11:00 +14°C° 0.1 mm 5 mps 753 mmHg 67%
    12:00 +14°C° 0.1 mm 5 mps 752 mmHg 64%
    13:00 +15°C° 0.1 mm 5 mps 752 mmHg 60%
    14:00 +15°C° 0.1 mm 4 mps 751 mmHg 62%
    15:00 +14°C° 0.1 mm 3 mps 751 mmHg 64%
    16:00 +15°C° 0.1 mm 2 mps 750 mmHg 67%
    17:00 +14°C° 1 mm 2 mps 749 mmHg 74%
    18:00 +13°C° 1 mm 2 mps 748 mmHg 80%
    19:00 +12°C° 1 mm 2 mps 747 mmHg 87%
    20:00 +11°C° 5 mm 3 mps 746 mmHg 89%
    21:00 +10°C° 5 mm 5 mps 745 mmHg 91%
    22:00 +9°C° 5 mm 6 mps 744 mmHg 93%
    23:00 +9°C° 1 mm 5 mps 743 mmHg 92%

    Tomorrow, 24 September, Monday

    Time Temperature Precipitation Wind Pressure Humidity
    00:00 +9°C° 1 mm 5 mps 743 mmHg 92%
    01:00 +10°C° 1 mm 4 mps 742 mmHg 92%
    02:00 +9°C° 1.5 mm 6 mps 743 mmHg 89%
    03:00 +8°C° 1.5 mm 7 mps 745 mmHg 87%
    04:00 +7°C° 1.5 mm 9 mps 746 mmHg 85%
    05:00 +7°C° 0.2 mm 8 mps 747 mmHg 85%
    06:00 +7°C° 0.2 mm 8 mps 748 mmHg 84%
    07:00 +9°C° 0.2 mm 7 mps 749 mmHg 83%
    08:00 +9°C° 0.2 mm 8 mps 750 mmHg 79%
    09:00 +10°C° 0.2 mm 9 mps 750 mmHg 75%
    10:00 +11°C° 0.2 mm 9 mps 751 mmHg 70%
    11:00 +11°C° 0.3 mm 9 mps 751 mmHg 68%
    12:00 +11°C° 0.3 mm 10 mps 752 mmHg 65%
    13:00 +11°C° 0.3 mm 10 mps 752 mmHg 63%
    14:00 +11°C° 0.2 mm 10 mps 753 mmHg 63%
    15:00 +11°C° 0.2 mm 9 mps 753 mmHg 64%
    16:00 +10°C° 0.2 mm 9 mps 753 mmHg 64%
    17:00 +9°C° 0.2 mm 8 mps 754 mmHg 68%
    18:00 +9°C° 0.2 mm 7 mps 754 mmHg 73%
    19:00 +8°C° 0.2 mm 7 mps 755 mmHg 77%
    20:00 +8°C° 0 mm 6 mps 756 mmHg 78%
    21:00 +7°C° 0 mm 6 mps 757 mmHg 78%
    22:00 +7°C° 0 mm 5 mps 758 mmHg 79%
    23:00 +7°C° 0 mm 5 mps 758 mmHg 79%

    Day after tomorrow, 25 September, Tuesday

    Time Temperature Precipitation Wind Pressure Humidity
    00:00 +6°C° 0 mm 5 mps 759 mmHg 79%
    01:00 +6°C° 0 mm 5 mps 760 mmHg 79%
    02:00 +6°C° 0 mm 5 mps 760 mmHg 80%
    03:00 +5°C° 0 mm 5 mps 761 mmHg 81%
    04:00 +5°C° 0 mm 5 mps 761 mmHg 81%
    05:00 +5°C° 0 mm 5 mps 762 mmHg 78%
    06:00 +6°C° 0 mm 5 mps 762 mmHg 74%
    07:00 +5°C° 0 mm 6 mps 763 mmHg 70%
    08:00 +7°C° 0 mm 6 mps 763 mmHg 62%
    09:00 +9°C° 0 mm 7 mps 764 mmHg 54%
    10:00 +10°C° 0 mm 8 mps 764 mmHg 46%
    11:00 +11°C° 0 mm 8 mps 764 mmHg 45%
    12:00 +11°C° 0 mm 7 mps 765 mmHg 44%
    13:00 +11°C° 0 mm 7 mps 765 mmHg 43%
    14:00 +11°C° 0 mm 7 mps 765 mmHg 43%
    15:00 +11°C° 0 mm 6 mps 765 mmHg 44%
    16:00 +11°C° 0 mm 6 mps 765 mmHg 45%
    17:00 +9°C° 0 mm 5 mps 766 mmHg 49%
    18:00 +8°C° 0 mm 4 mps 766 mmHg 53%
    19:00 +8°C° 0 mm 3 mps 767 mmHg 57%
    20:00 +7°C° 0 mm 3 mps 767 mmHg 58%
    21:00 +7°C° 0 mm 2 mps 768 mmHg 60%
    22:00 +6°C° 0 mm 2 mps 768 mmHg 61%
    23:00 +6°C° 0 mm 2 mps 768 mmHg 61%

    26 September, Wednesday

    Time Temperature Precipitation Wind Pressure Humidity
    00:00 +6°C° 0 mm 2 mps 768 mmHg 61%
    01:00 +5°C° 0 mm 2 mps 768 mmHg 60%
    02:00 +5°C° 0 mm 2 mps 768 mmHg 61%
    03:00 +5°C° 0 mm 2 mps 768 mmHg 62%
    04:00 +4°C° 0 mm 3 mps 768 mmHg 63%
    05:00 +4°C° 0 mm 3 mps 768 mmHg 64%
    06:00 +5°C° 0 mm 3 mps 768 mmHg 66%
    07:00 +6°C° 0 mm 4 mps 768 mmHg 67%
    08:00 +7°C° 0 mm 5 mps 768 mmHg 62%
    09:00 +9°C° 0 mm 5 mps 767 mmHg 57%
    10:00 +11°C° 0 mm 6 mps 767 mmHg 52%
    11:00 +13°C° 0 mm 6 mps 766 mmHg 50%
    12:00 +13°C° 0 mm 6 mps 766 mmHg 47%
    13:00 +14°C° 0 mm 7 mps 765 mmHg 45%
    14:00 +14°C° 0 mm 6 mps 764 mmHg 46%
    15:00 +14°C° 0 mm 6 mps 764 mmHg 47%
    16:00 +14°C° 0 mm 6 mps 763 mmHg 48%
    17:00 +13°C° 0 mm 6 mps 763 mmHg 48%
    18:00 +13°C° 0 mm 6 mps 762 mmHg 49%
    19:00 +11°C° 0 mm 6 mps 762 mmHg 49%
    20:00 +11°C° 0.1 mm 6 mps 762 mmHg 52%
    21:00 +11°C° 0.1 mm 6 mps 761 mmHg 55%
    22:00 +11°C° 0.1 mm 6 mps 761 mmHg 58%
    23:00 +10°C° 0.2 mm 6 mps 760 mmHg 62%

    27 September, Thursday

    Time Temperature Precipitation Wind Pressure Humidity
    00:00 +10°C° 0.2 mm 7 mps 760 mmHg 67%
    01:00 +10°C° 0.2 mm 7 mps 760 mmHg 72%
    02:00 +10°C° 0.2 mm 7 mps 759 mmHg 71%
    03:00 +10°C° 0.2 mm 7 mps 759 mmHg 71%
    04:00 +10°C° 0.2 mm 7 mps 759 mmHg 70%
    05:00 +10°C° 0 mm 7 mps 759 mmHg 71%
    06:00 +11°C° 0 mm 7 mps 759 mmHg 71%
    07:00 +11°C° 0 mm 7 mps 759 mmHg 72%
    08:00 +11°C° 0 mm 7 mps 759 mmHg 73%
    09:00 +12°C° 0 mm 7 mps 759 mmHg 73%
    10:00 +12°C° 0 mm 7 mps 759 mmHg 74%
    11:00 +15°C° 0 mm 7 mps 759 mmHg 71%
    12:00 +16°C° 0 mm 7 mps 759 mmHg 69%
    13:00 +18°C° 0 mm 7 mps 759 mmHg 66%
    14:00 +19°C° 0 mm 6 mps 758 mmHg 68%
    15:00 +19°C° 0 mm 5 mps 758 mmHg 69%
    16:00 +19°C° 0 mm 5 mps 758 mmHg 70%
    17:00 +18°C° 0 mm 4 mps 758 mmHg 73%
    18:00 +17°C° 0 mm 4 mps 758 mmHg 76%
    19:00 +17°C° 0 mm 3 mps 758 mmHg 79%
    20:00 +15°C° 0 mm 4 mps 758 mmHg 81%
    21:00 +15°C° 0 mm 4 mps 758 mmHg 83%
    22:00 +14°C° 0 mm 4 mps 758 mmHg 85%
    23:00 +14°C° 0 mm 4 mps 757 mmHg 85%

    28 September, Friday

    Time Temperature Precipitation Wind Pressure Humidity
    00:00 +14°C° 0 mm 4 mps 757 mmHg 85%
    01:00 +14°C° 0 mm 4 mps 756 mmHg 85%
    02:00 +14°C° 0 mm 5 mps 756 mmHg 83%
    03:00 +14°C° 0 mm 5 mps 756 mmHg 81%
    04:00 +13°C° 0 mm 5 mps 755 mmHg 80%
    05:00 +14°C° 0 mm 5 mps 755 mmHg 77%
    06:00 +14°C° 0 mm 5 mps 755 mmHg 75%
    07:00 +14°C° 0 mm 5 mps 755 mmHg 72%
    08:00 +15°C° 0 mm 5 mps 755 mmHg 70%
    09:00 +17°C° 0 mm 5 mps 755 mmHg 67%
    10:00 +19°C° 0 mm 5 mps 755 mmHg 64%
    11:00 +19°C° 0 mm 5 mps 755 mmHg 65%
    12:00 +19°C° 0 mm 5 mps 755 mmHg 66%
    13:00 +19°C° 0 mm 4 mps 755 mmHg 67%
    14:00 +18°C° 0 mm 4 mps 756 mmHg 67%
    15:00 +18°C° 0 mm 3 mps 756 mmHg 67%
    16:00 +17°C° 0 mm 3 mps 756 mmHg 67%
    17:00 +17°C° 0 mm 3 mps 756 mmHg 67%
    18:00 +16°C° 0 mm 3 mps 757 mmHg 66%
    19:00 +15°C° 0 mm 2 mps 757 mmHg 66%
    20:00 +13°C° 0 mm 3 mps 758 mmHg 66%
    21:00 +13°C° 0 mm 3 mps 758 mmHg 66%
    22:00 +12°C° 0 mm 3 mps 758 mmHg 66%
    23:00 +12°C° 0 mm 3 mps 758 mmHg 67%
    Show more